Volver al catálogo

SL-8 DEB

ActivoPO
NORAD 29284·DEBRIS·🇷🇺 Russia

Lanzado Dec 17, 1981 desde Plesetsk Cosmodrome

Loading…

Próximos Pases (próximas 24 horas)

TLE

ActualizadoSource: Space-Track

Época: Sep 14, 2026, 08:04 UTC

1 29284U 81120N   26257.33621734 -.00000052  00000-0 -73498-3 0  9991
2 29284  82.9540  89.2242 0035732 346.8790 188.5334 12.02519464557237

Sigue SL-8 DEB en tiempo real con AllMySat

Download on the App Store